Weather History for KMAF - September, 2013

Change the Weather History Date:

Monday, September 23, 2013

  Actual Average Record
Temperature  
Mean Temperature 77 °F 72 °F  
Max Temperature 93 °F 85 °F 99 °F (1933)
Min Temperature 61 °F 60 °F 45 °F (1995)
Degree Days  
Heating Degree Days 0 1  
Month to date heating degree days 0 3  
Since 1 July heating degree days 0 3  
Cooling Degree Days 12 8  
Month to date cooling degree days 317 248  
Year to date cooling degree days 2492 2132  
Growing Degree Days 27 (Base 50)    
Moisture  
Dew Point 45 °F    
Average Humidity 38    
Maximum Humidity 60    
Minimum Humidity 16    
Precipitation  
Precipitation 0.00 in 0.06 in 1.95 in (1980)
Month to date precipitation 0.27 1.46  
Year to date precipitation 4.84 11.18  
Sea Level Pressure  
Sea Level Pressure 29.71 in    
Wind  
Wind Speed 10 mph (WSW)    
Max Wind Speed 20 mph    
Max Gust Speed 24 mph    
Visibility 10 miles    
Events      
T = Trace of Precipitation, MM = Missing Value Source: NWS Daily Summary

Daily Weather History Graph

Daily Weather History Graph

Search for Another Location

Airport or City:

Trip Planner

Search our weather history database for the weather conditions in past years. The results will help you decide how hot, cold, wet, or windy it might be!

Date:

Astronomy

Sep. 23, 2013 Rise Set
Actual Time 7:37 AM CDT 7:43 PM CDT
Civil Twilight 7:13 AM CDT 8:08 PM CDT
Nautical Twilight 6:45 AM CDT 8:36 PM CDT
Astronomical Twilight 6:16 AM CDT 9:05 PM CDT
Moon 10:34 PM CDT (9/23) 11:42 AM CDT (9/23)
Length of Visible Light 12h 54m
Length of Day
12h 05m
Waning Gibbous, 81% of the Moon is Illuminated
Sep 23
Waning Gibbous
Sep 26
Last Quarter
Oct 4
New
Oct 11
First Quarter
Oct 18
Full

Hourly Weather History & Observations

Time (CDT) Temp. Heat Index Dew Point Humidity Pressure Visibility Wind Dir Wind Speed Gust Speed Precip Events Conditions
12:53 AM 63.0 °F - 48.0 °F 58% 29.72 in 10.0 mi SE 9.2 mph - N/A   Clear
1:53 AM 64.9 °F - 48.0 °F 54% 29.70 in 10.0 mi South 10.4 mph - N/A   Clear
2:53 AM 64.0 °F - 46.0 °F 52% 29.70 in 10.0 mi SSE 9.2 mph - N/A   Clear
3:53 AM 64.0 °F - 46.0 °F 52% 29.69 in 10.0 mi South 10.4 mph - N/A   Clear
4:53 AM 64.0 °F - 46.0 °F 52% 29.69 in 10.0 mi South 9.2 mph - N/A   Clear
5:53 AM 63.0 °F - 46.9 °F 56% 29.70 in 10.0 mi South 9.2 mph - N/A   Clear
6:53 AM 62.1 °F - 46.0 °F 56% 29.70 in 10.0 mi SSE 8.1 mph - N/A   Clear
7:53 AM 61.0 °F - 46.9 °F 60% 29.71 in 10.0 mi SSE 8.1 mph - N/A   Clear
8:53 AM 66.9 °F - 46.9 °F 49% 29.72 in 10.0 mi South 15.0 mph - N/A   Clear
9:53 AM 72.0 °F - 48.9 °F 44% 29.72 in 10.0 mi South 12.7 mph - N/A   Clear
10:53 AM 78.1 °F - 51.1 °F 39% 29.73 in 10.0 mi SW 11.5 mph - N/A   Clear
11:53 AM 81.0 °F 80.4 °F 53.1 °F 38% 29.73 in 10.0 mi West 8.1 mph - N/A   Clear
12:53 PM 88.0 °F 85.9 °F 54.0 °F 31% 29.71 in 10.0 mi WNW 12.7 mph 17.3 mph N/A   Clear
1:53 PM 89.1 °F 86.7 °F 53.1 °F 29% 29.69 in 10.0 mi NNW 15.0 mph 20.7 mph N/A   Clear
2:53 PM 90.0 °F - 48.9 °F 24% 29.68 in 10.0 mi NNW 8.1 mph 17.3 mph N/A   Clear
3:53 PM 91.0 °F - 43.0 °F 19% 29.67 in 10.0 mi West 15.0 mph 20.7 mph N/A   Clear
4:53 PM 91.0 °F - 41.0 °F 17% 29.66 in 10.0 mi West 10.4 mph 21.9 mph N/A   Clear
5:53 PM 91.0 °F - 39.9 °F 17% 29.67 in 10.0 mi WNW 12.7 mph - N/A   Clear
6:53 PM 89.1 °F - 39.0 °F 17% 29.68 in 10.0 mi NW 9.2 mph - N/A   Clear
7:53 PM 82.9 °F - 39.0 °F 21% 29.71 in 10.0 mi NNW 8.1 mph - N/A   Clear
8:53 PM 78.1 °F - 39.0 °F 25% 29.73 in 10.0 mi North 3.5 mph - N/A   Clear
9:53 PM 75.0 °F - 39.9 °F 28% 29.76 in 10.0 mi NNW 8.1 mph - N/A   Clear
10:53 PM 73.0 °F - 36.0 °F 26% 29.77 in 10.0 mi NNW 9.2 mph - N/A   Clear
11:53 PM 71.1 °F - 37.9 °F 30% 29.79 in 10.0 mi NNW 9.2 mph - N/A   Clear